星链-32853 (STARLINK-32853)

导读 | 星芒AI

STARLINK-32853 是 SpaceX Starlink 卫星互联网项目中的一颗低轨卫星,属于第 6 批次部署的星链卫星之一。该卫星于 2022 年发射,运行在约 550 公里的近地轨道上,旨在为全球用户提供高速互联网服务。Starlink 项目通过部署数千颗卫星,构建覆盖全球的宽带网络,特别服务于偏远地区。STARLINK-32853 采用先进通信技术,具备高带宽和低延迟特性,是实现全球互联网接入目标的重要组成部分。

基本信息
目录编号:
62818
目录名称:
STARLINK-32853
国际标识:
2025-018N
轨道中心:
EARTH
卫星名称:
星链-32853
卫星全名:
星链-32853 (STARLINK-32853)
卫星状态:
在轨 (已飞行287 天)
发射日期:
2025-01-24 UTC
国别 :
美国 (US)
星等 :
--
轨道信息
数据来源 国际轨道数据
星历时间: 2025-11-06T21:56:37+0800
1天前
查看轨道信息
半长轴: 6853.354km
偏心率: 0.0000775
轨道倾角: 53.160°
近地点辐角 89.358°
升交点赤经 161.158°
平近点角 270.750°
近地点: 474.687km
远地点: 475.751km
周期: 94.105分钟
每日圈数: 15.301995
详细信息
固有亮度:
5
最大亮度:
2.5
卫星平台:
Starlink V1.0
覆盖范围:
全球
运营商:
太空探索技术公司
运营商所在国:
美国
制造商(研发单位):
太空探索技术公司
制造商所在国:
美国
使用方式:
暂无
卫星简介
Starlink 计划是 SpaceX 推出的全球卫星互联网项目,通过发射低轨道卫星,为全球尤其是偏远地区提供高速、低延迟的互联网服务。自 2019 年起,Starlink 已部署数千颗卫星,旨在缩小全球数字鸿沟,推动互联网普及。该项目还为军事、航空等行业提供通信支持,带来广泛经济效益。
2D轨道图
3D轨道图
轨道高度分析图
轨道倾角分析图
轨道综合分析图
查看轨道综合分析图